Weather History for Sheridan, WY

Change the Weather History Date:

Wednesday, November 14, 2012

  Actual Average Record
Temperature  
Mean Temperature 31 °F 33 °F  
Max Temperature 41 °F 47 °F 74 °F (1999)
Min Temperature 21 °F 20 °F -19 °F (1959)
Degree Days  
Heating Degree Days 34 32  
Month to date heating degree days 405 399  
Since 1 July heating degree days 1179 1307  
Cooling Degree Days 0 0  
Month to date cooling degree days 0 0  
Year to date cooling degree days 664 419  
Moisture  
Dew Point 25 °F    
Average Humidity 78    
Maximum Humidity 96    
Minimum Humidity 59    
Precipitation  
Precipitation 0.00 in 0.03 in 0.54 in (1964)
Month to date precipitation 0.42 0.36  
Year to date precipitation 8.36 13.25  
Sea Level Pressure  
Sea Level Pressure 30.22 in    
Wind  
Wind Speed 2 mph (West)    
Max Wind Speed 9 mph    
Max Gust Speed 10 mph    
Visibility 10 miles    
Events      
T = Trace of Precipitation, MM = Missing Value Source: NWS Daily Summary

Daily Weather History Graph

Daily Weather History Graph

Search for Another Location

Airport:

Trip Planner

Search our weather history database for the weather conditions in past years. The results will help you decide how hot, cold, wet, or windy it might be!

Date:

Astronomy

Nov. 14, 2012 Rise Set
Actual Time 7:04 AM MST 4:40 PM MST
Civil Twilight 6:32 AM MST 5:11 PM MST
Nautical Twilight 5:57 AM MST 5:47 PM MST
Astronomical Twilight 5:22 AM MST 6:21 PM MST
Moon 7:59 AM MST (11/14) 5:28 PM MST (11/14)
Length of Visible Light 10h 38m
Length of Day
9h 35m
New Moon, 1% of the Moon is Illuminated
Nov 14
New Moon
Nov 20
First Quarter
Nov 28
Full
Dec 6
Last Quarter
Dec 13
New

Hourly Weather History & Observations

Time (MST) Temp. Windchill Dew Point Humidity Pressure Visibility Wind Dir Wind Speed Gust Speed Precip Events Conditions
12:53 AM 23.0 °F 17.0 °F 19.9 °F 88% 30.21 in 10.0 mi South 4.6 mph - N/A   Scattered Clouds
1:53 AM 21.9 °F - 18.0 °F 85% 30.20 in 10.0 mi Calm Calm - N/A   Clear
2:53 AM 21.9 °F 14.5 °F 17.1 °F 82% 30.20 in 10.0 mi SSW 5.8 mph - N/A   Clear
3:53 AM 23.0 °F - 19.0 °F 85% 30.18 in 10.0 mi Calm Calm - N/A   Mostly Cloudy
4:53 AM 23.0 °F - 19.0 °F 85% 30.17 in 10.0 mi Calm Calm - N/A   Mostly Cloudy
5:53 AM 24.1 °F 19.7 °F 21.0 °F 88% 30.19 in 10.0 mi North 3.5 mph - N/A   Overcast
6:53 AM 21.0 °F 16.2 °F 19.0 °F 92% 30.22 in 10.0 mi SSW 3.5 mph - N/A   Scattered Clouds
7:53 AM 23.0 °F 18.4 °F 21.0 °F 92% 30.21 in 10.0 mi WSW 3.5 mph - N/A   Mostly Cloudy
8:53 AM 30.0 °F - 24.1 °F 79% 30.19 in 10.0 mi Calm Calm - N/A   Clear
9:53 AM 32.0 °F - 27.0 °F 82% 30.18 in 10.0 mi Calm Calm - N/A   Overcast
10:53 AM 36.0 °F - 28.0 °F 73% 30.18 in 10.0 mi Calm Calm - N/A   Partly Cloudy
11:53 AM 35.1 °F - 27.0 °F 72% 30.18 in 10.0 mi Calm Calm - N/A   Partly Cloudy
12:53 PM 39.0 °F - 27.0 °F 62% 30.15 in 10.0 mi Calm Calm - N/A   Clear
1:53 PM 39.0 °F - 28.0 °F 65% 30.16 in 10.0 mi Calm Calm - N/A   Overcast
2:53 PM 37.9 °F 32.7 °F 32.0 °F 79% 30.18 in 10.0 mi SSW 6.9 mph - N/A   Mostly Cloudy
3:53 PM 37.9 °F - 30.9 °F 76% 30.18 in 10.0 mi Calm Calm - N/A   Mostly Cloudy
4:53 PM 39.9 °F 35.8 °F 28.9 °F 65% 30.20 in 10.0 mi WNW 5.8 mph - N/A   Overcast
5:53 PM 37.0 °F 31.6 °F 28.9 °F 73% 30.24 in 10.0 mi West 6.9 mph - N/A   Mostly Cloudy
6:53 PM 37.0 °F - 30.0 °F 76% 30.26 in 10.0 mi Calm Calm - N/A   Overcast
7:53 PM 34.0 °F 31.0 °F 28.0 °F 79% 30.28 in 10.0 mi NNE 3.5 mph - N/A   Scattered Clouds
8:53 PM 33.1 °F - 27.0 °F 78% 30.30 in 10.0 mi Calm Calm - N/A   Mostly Cloudy
9:53 PM 37.0 °F 34.5 °F 28.0 °F 70% 30.30 in 10.0 mi NNW 3.5 mph - N/A   Overcast
10:53 PM 30.9 °F - 27.0 °F 85% 30.32 in 10.0 mi Calm Calm - N/A   Overcast
11:53 PM 34.0 °F 28.8 °F 28.0 °F 79% 30.33 in 10.0 mi NW 5.8 mph - N/A   Overcast